CAPE
12 24 14 14 8 12 0 0 0 0 1 2 0 0 0 0 0 0 0 0 0 0 0 0 0 0 0 0 0 0 0 0 0 0 0 0 0 0 0 0 0 0 0 0
14 14 11 14 2 15 1 0 0 0 0 0 0 0 0 4 1 0 0 0 0 0 0 0 0 0 0 0 0 0 0 0 0 0 0 0 0 0 0 0 0 0 0 0
12 26 21 10 1 2 0 0 0 0 0 0 0 0 0 0 0 0 0 0 0 0 0 0 0 0 0 0 0 0 0 0 0 0 0 0 0 0 0 0 0 0 0 0
23 20 14 11 2 0 0 0 0 1 0 0 0 0 0 0 0 0 0 2 0 2 0 0 0 0 0 0 0 0 0 0 0 0 0 0 0 0 0 0 0 0 0 0
24 22 14 11 3 0 0 0 0 0 0 0 0 0 0 0 0 0 0 0 0 0 1 0 0 0 0 0 0 0 0 0 0 0 0 0 0 0 0 0 0 0 0 0
17 8 13 17 6 3 2 3 0 0 0 0 0 0 0 0 0 0 0 0 0 0 0 0 0 0 0 0 0 0 0 0 0 0 0 0 0 0 0 0 0 0 0 0
21 16 9 18 13 14 5 3 3 0 0 0 0 0 0 0 0 0 0 0 0 0 0 0 0 0 0 0 0 0 0 0 0 0 0 0 0 0 0 0 0 0 0 0
21 32 37 26 18 10 2 2 1 0 0 0 0 0 0 0 0 0 0 0 0 0 0 0 0 0 0 0 0 0 0 0 0 0 0 0 0 0 0 0 0 0 0 0
11 32 39 36 31 13 2 2 3 1 5 0 0 0 0 0 0 0 0 0 0 0 6 0 0 0 0 0 0 0 0 0 0 0 0 0 0 0 0 0 0 0 0 0
7 22 20 15 13 7 2 0 4 4 5 0 0 0 0 0 3 0 0 0 0 0 0 0 0 0 4 0 0 0 0 0 0 0 0 0 0 0 0 0 0 0 0 0
8 8 14 12 14 24 5 0 4 2 2 0 0 0 0 0 0 0 0 0 0 0 0 0 0 0 3 9 6 1 0 0 0 0 0 0 0 0 0 0 0 0 0 0
4 3 8 13 18 14 6 0 0 9 17 0 0 0 0 0 0 0 0 0 0 0 0 0 0 0 0 0 5 0 13 2 0 0 0 0 0 0 0 0 0 0 0 0
2 0 0 0 2 16 40 0 0 1 0 0 0 0 0 0 0 0 1 0 0 0 0 1 0 0 0 0 0 0 0 0 0 0 0 0 0 0 0 0 0 0 0 0
10 9 7 3 2 11 31 2 0 0 0 0 0 0 0 0 0 0 0 0 0 0 0 1 1 0 0 0 0 1 0 0 0 0 0 0 0 0 0 0 0 0 0 0
17 14 11 7 5 15 31 3 0 0 0 0 0 0 0 0 0 0 0 0 0 1 5 0 0 7 0 0 1 0 0 1 1 0 0 0 0 0 0 0 0 0 0 0
22 29 11 24 20 76 0 0 0 1 0 0 0 0 0 0 0 0 0 0 0 0 0 0 0 0 3 0 0 0 0 0 0 0 0 0 0 0 0 0 0 0 0 0
29 11 5 39 13 7 0 0 0 1 1 0 0 0 0 0 0 0 0 0 0 0 0 0 0 0 1 0 0 0 0 0 0 0 0 0 0 0 0 0 0 0 0 0
30 17 9 4 17 18 1 1 2 2 0 0 0 0 0 0 0 2 0 0 0 0 0 0 0 1 1 0 0 0 0 0 0 0 0 0 0 0 0 0 0 0 0 0
32 10 2 1 0 0 0 7 5 0 0 0 0 0 0 0 0 0 0 0 0 0 0 0 0 0 0 0 0 0 0 0 0 0 0 0 0 0 0 0 0 0 0 0
12 1 0 0 0 11 2 0 0 0 1 1 0 0 0 0 0 0 0 0 0 0 0 0 0 0 0 0 0 0 0 0 0 0 0 0 0 0 0 0 0 0 0 0
0 0 0 0 2 0 0 0 0 0 0 0 0 0 0 0 0 0 0 0 0 0 0 0 0 0 0 0 0 0 0 0 0 0 0 0 0 0 0 0 0 0 0 0
0 0 0 0 0 0 0 0 0 0 0 0 0 0 0 0 0 0 0 0 0 0 0 0 1 0 0 0 0 0 0 0 0 0 0 0 0 0 0 0 0 0 0 0
0 0 0 0 0 0 0 0 0 0 0 0 0 0 0 0 0 0 0 0 0 0 0 0 0 0 0 0 0 3 0 0 0 0 0 0 0 0 0 0 0 0 0 0
0 0 0 0 0 0 0 0 0 0 0 0 0 0 0 0 0 0 0 0 0 0 0 0 0 0 0 0 0 0 0 0 0 0 0 0 0 0 0 0 0 0 0 0
0 0 0 0 0 0 0 0 0 0 0 0 0 0 0 0 0 0 0 0 0 0 0 0 0 0 0 0 0 4 6 0 0 0 0 0 0 0 0 0 0 0 0 0
0 0 0 0 0 0 0 0 0 0 0 0 0 0 0 0 0 0 0 0 0 0 0 0 0 0 0 0 0 0 0 0 0 0 0 0 0 0 0 0 0 0 0 0
0 0 0 0 0 0 0 0 0 0 0 0 0 0 0 0 0 0 0 0 0 0 0 0 0 0 0 0 0 0 0 0 0 0 0 0 0 0 0 0 0 0 0 0
CIN
-1 -0 -0 -0 -0 -0 -0 -0 -0 -0 -30 -3 -0 -0 -0 -0 -0 -0 -0 -0 -0 -0 -0 -0 -0 -0 -0 -0 -0 -0 -0 -0 -0 -0 -0 -0 -0 -0 -0 -0 -0 -0 -0 -0
-0 -0 -0 -0 -0 -0 -0 -0 -0 -0 -0 -0 -0 -0 -0 -0 -4 -0 -0 -0 -0 -0 -0 -0 -0 -0 -0 -0 -0 -0 -0 -0 -0 -0 -0 -0 -0 -0 -0 -0 -0 -0 -0 -0
-0 -0 -0 -0 -0 -0 -0 -0 -0 -0 -0 -0 -0 -0 -0 -0 -0 -0 -0 -2 -0 -0 -0 -0 -0 -0 -0 -0 -0 -0 -0 -0 -0 -0 -0 -0 -0 -0 -0 -0 -0 -0 -0 -0
-0 -0 -0 -0 -0 -0 -0 -0 -0 -0 -0 -0 -0 -0 -0 -0 -0 -0 -0 -15 -0 -0 -0 -0 -0 -0 -0 -0 -0 -0 -0 -0 -0 -0 -0 -0 -0 -0 -0 -0 -0 -0 -0 -0
-0 -0 -1 -0 -0 -0 -0 -0 -0 -0 -0 -0 -0 -0 -0 -0 -0 -0 -0 -0 -0 -0 -0 -0 -0 -0 -0 -0 -0 -0 -0 -0 -0 -0 -0 -0 -0 -0 -0 -0 -0 -0 -0 -0
-0 -0 -0 -0 -0 -9 -9 -14 -0 -0 -0 -0 -0 -0 -0 -0 -0 -0 -0 -0 -0 -0 -0 -0 -0 -0 -0 -0 -0 -0 -0 -0 -0 -0 -0 -0 -0 -0 -0 -0 -0 -0 -0 -0
-0 -0 -0 -0 -0 -3 -5 -3 -0 -0 -0 -0 -0 -0 -0 -0 -0 -0 -0 -0 -0 -0 -0 -0 -0 -0 -0 -0 -0 -0 -0 -0 -0 -0 -0 -0 -0 -0 -0 -0 -0 -0 -0 -0
-0 -0 -0 -0 -0 -0 -1 -2 -0 -0 -0 -0 -0 -0 -0 -0 -0 -0 -0 -0 -0 -0 -0 -0 -0 -0 -0 -0 -0 -0 -0 -0 -0 -0 -0 -0 -0 -0 -0 -0 -0 -0 -0 -0
-0 -0 -0 -0 -0 -2 -1 -0 -5 -3 -1 -0 -0 -0 -0 -0 -0 -0 -0 -0 -0 -0 -2 -0 -0 -0 -0 -0 -0 -0 -0 -0 -0 -0 -0 -0 -0 -0 -0 -0 -0 -0 -0 -0
-0 -0 -2 -5 -4 -8 -2 -0 -2 -1 -3 -0 -0 -0 -0 -0 -0 -0 -0 -0 -0 -0 -0 -0 -3 -0 -2 -0 -0 -0 -0 -0 -0 -0 -5 -0 -0 -0 -0 -0 -0 -0 -0 -0
-0 -0 -2 -2 -3 -3 -4 -0 -5 -2 -1 -0 -0 -0 -0 -0 -0 -0 -0 -0 -0 -0 -0 -0 -0 -0 -9 -7 -11 -1 -0 -0 -0 -0 -0 -4 -0 -0 -0 -0 -0 -0 -0 -0
-0 -0 -0 -0 -2 -7 -2 -0 -0 -15 -1 -0 -0 -0 -0 -0 -0 -0 -0 -0 -0 -0 -0 -0 -0 -0 -0 -0 -3 -47 -5 -11 -0 -0 -0 -0 -0 -0 -0 -0 -0 -0 -0 -0
-0 -0 -0 -0 -0 -2 -1 -0 -0 -2 -0 -0 -0 -0 -0 -0 -0 -0 -0 -0 -0 -2 -0 -2 -0 -0 -0 -0 -0 -0 -0 -0 -0 -0 -0 -0 -0 -0 -0 -0 -0 -0 -0 -0
-0 -0 -0 -0 -0 -0 -0 -2 -0 -0 -0 -0 -0 -0 -0 -0 -0 -0 -0 -0 -0 -0 -0 -7 -1 -0 -0 -0 -0 -0 -0 -0 -0 -0 -0 -0 -0 -0 -0 -0 -0 -0 -0 -0
-0 -0 -0 -0 -4 -7 -0 -1 -3 -0 -0 -0 -0 -0 -0 -0 -0 -0 -0 -0 -0 -0 -1 -3 -0 -1 -0 -0 -0 -0 -0 -0 -0 -0 -0 -0 -0 -0 -0 -0 -0 -0 -0 -0
-0 -0 -0 -0 -3 -0 -0 -0 -0 -0 -0 -0 -0 -0 -0 -0 -0 -0 -0 -0 -0 -0 -0 -0 -0 -0 -3 -0 -0 -0 -0 -0 -0 -0 -0 -0 -0 -0 -0 -0 -0 -0 -0 -0
-0 -0 -0 -0 -0 -0 -0 -0 -0 -0 -0 -0 -0 -0 -0 -0 -0 -0 -0 -0 -0 -0 -0 -0 -0 -0 -1 -0 -0 -0 -0 -0 -0 -0 -0 -0 -0 -0 -0 -0 -0 -0 -0 -0
-0 -0 -1 -0 -0 -20 -0 -0 -0 -0 -0 -0 -0 -0 -0 -0 -0 -20 -0 -0 -0 -2 -0 -0 -0 -8 -5 -0 -0 -0 -0 -0 -0 -0 -0 -0 -0 -0 -0 -0 -0 -0 -0 -0
-0 -1 -0 -0 -0 -0 -1 -0 -0 -0 -0 -0 -0 -0 -0 -0 -0 -0 -0 -0 -0 -0 -0 -0 -0 -0 -0 -0 -0 -0 -0 -0 -0 -0 -0 -0 -0 -0 -0 -0 -0 -0 -0 -0
-0 -1 -0 -0 -0 -0 -0 -0 -0 -0 -2 -0 -0 -0 -0 -0 -0 -0 -0 -0 -29 -0 -0 -0 -0 -0 -0 -0 -0 -0 -0 -0 -0 -0 -0 -0 -0 -0 -0 -0 -0 -0 -0 -0
-0 -0 -0 -0 -0 -0 -0 -0 -0 -0 -0 -0 -0 -0 -0 -0 -0 -0 -0 -0 -0 -0 -0 -0 -6 -0 -0 -0 -0 -0 -0 -0 -0 -0 -0 -0 -0 -0 -0 -0 -0 -0 -0 -0
-0 -0 -0 -0 -0 -0 -0 -0 -0 -0 -0 -0 -0 -0 -0 -0 -0 -0 -0 -0 -0 -0 -0 -0 -35 -1 -0 -0 -0 -0 -0 -0 -0 -0 -0 -0 -0 -0 -0 -0 -0 -0 -0 -0
-0 -0 -0 -0 -0 -0 -0 -0 -0 -0 -0 -0 -0 -0 -0 -0 -0 -0 -0 -46 -0 -0 -0 -0 -0 -0 -0 -0 -0 -50 -43 -0 -0 -0 -0 -0 -0 -0 -0 -0 -0 -0 -0 -0
-0 -0 -0 -0 -0 -0 -0 -0 -0 -0 -0 -0 -0 -0 -0 -0 -0 -0 -0 -0 -0 -0 -0 -0 -0 -0 -0 -0 -0 -0 -0 -0 -0 -0 -0 -0 -0 -0 -0 -0 -0 -0 -0 -0
-0 -0 -0 -0 -0 -0 -0 -0 -0 -0 -0 -0 -0 -0 -0 -0 -8 -0 -1 -0 -0 -0 -0 -0 -0 -0 -0 -0 -0 -37 -50 -0 -0 -0 -0 -0 -0 -0 -0 -0 -0 -0 -0 -0
-0 -0 -0 -0 -0 -0 -0 -0 -0 -0 -0 -0 -0 -0 -0 -0 -0 -0 -0 -0 -0 -0 -0 -0 -0 -0 -0 -0 -0 -0 -0 -0 -0 -0 -0 -0 -0 -0 -0 -0 -0 -0 -0 -0
-0 -0 -0 -0 -0 -0 -0 -0 -0 -0 -0 -0 -27 -6 -0 -0 -3 -0 -0 -0 -0 -0 -0 -0 -0 -0 -0 -0 -0 -0 -0 -0 -0 -0 -0 -0 -0 -0 -0 -0 -0 -0 -0 -0
Wind_Speed
36 37 38 39 40 41 35 26 21 27 22 16 18 21 22 22 23 27 26 25 26 24 24 27 27 32 32 29 29 37 32 24 29 29 26 27 29 29 28 30 28 25 24 22
36 36 37 38 39 39 32 26 22 23 19 18 22 23 22 21 23 24 24 24 23 24 26 26 25 27 25 27 28 33 32 33 30 29 30 28 31 30 29 25 24 27 27 24
35 35 35 37 38 37 27 24 23 22 20 19 22 22 21 23 24 21 24 26 26 26 26 26 28 26 26 28 25 29 26 34 37 37 34 26 30 29 28 29 31 26 30 24
32 33 35 36 36 35 25 25 22 22 23 24 24 22 22 23 22 22 21 21 23 26 28 29 26 24 26 23 22 23 27 37 37 37 29 26 30 31 30 32 32 30 31 27
30 33 33 34 34 34 26 24 24 24 23 25 24 24 24 24 26 23 23 26 30 29 28 24 30 27 22 24 25 23 24 34 33 38 36 36 35 34 32 33 33 34 31 31
30 30 30 31 31 30 25 25 23 22 24 25 24 24 26 27 27 24 24 29 31 33 29 34 35 36 34 32 28 28 29 31 30 38 34 33 43 41 33 33 31 29 31 28
28 28 28 28 28 25 24 23 24 24 25 26 26 29 28 30 29 31 32 27 27 29 37 38 35 33 35 32 32 29 32 31 34 36 27 42 43 31 30 32 31 29 29 27
29 29 24 25 25 25 24 22 23 24 26 27 29 26 31 30 29 28 29 25 31 32 30 31 34 33 33 37 36 34 31 30 33 35 37 35 33 30 30 30 34 28 28 25
28 29 26 25 23 22 22 23 21 23 28 24 25 32 27 28 30 29 27 29 28 26 26 28 35 39 34 31 30 22 27 30 32 31 41 46 32 27 24 23 41 29 27 25
25 28 26 25 25 21 20 21 19 23 26 25 23 27 29 29 27 29 29 29 26 23 26 29 32 37 33 37 37 34 29 30 34 34 34 36 31 26 19 32 38 25 24 25
23 25 25 26 26 22 18 20 19 20 25 30 25 22 24 28 29 30 29 27 23 25 24 27 27 30 32 35 32 35 34 30 33 31 33 34 21 20 28 29 19 18 19 21
21 22 24 24 24 25 18 19 17 17 22 27 31 33 34 30 31 30 23 24 26 23 23 23 25 25 27 32 37 26 31 29 30 28 28 22 20 19 19 20 20 20 24 22
20 19 19 20 21 21 19 16 15 18 25 31 24 26 22 18 19 17 24 22 22 22 21 23 23 26 23 27 29 32 26 21 26 27 22 20 19 18 19 20 22 23 24 25
20 18 18 16 14 14 15 16 15 16 21 25 24 21 26 30 23 14 15 24 22 23 23 26 27 28 24 26 30 31 29 31 28 30 22 21 19 18 20 20 20 21 22 22
19 20 17 13 9 6 6 11 10 5 17 25 31 32 22 16 21 13 13 23 25 25 25 27 30 27 26 26 26 28 25 28 30 31 26 27 25 22 21 21 21 22 22 21
17 12 10 9 7 19 21 18 13 1 3 24 28 25 25 22 22 15 14 16 21 22 23 26 26 25 26 27 28 24 23 24 23 28 29 28 28 22 22 22 21 20 20 22
9 32 25 11 17 15 12 11 17 8 7 22 24 22 18 22 19 16 15 14 20 23 25 26 28 31 27 29 31 24 26 26 27 25 22 20 20 24 22 20 17 16 17 19
21 22 21 13 13 17 17 11 10 8 12 20 22 22 23 19 19 17 15 18 20 23 25 25 27 27 28 36 34 32 27 25 27 28 25 27 27 24 23 23 22 18 19 21
21 18 20 17 16 14 16 10 9 10 16 22 22 21 21 17 15 15 18 18 23 20 25 26 25 29 35 33 32 32 27 23 23 25 26 27 28 28 26 25 25 21 19 20
17 14 15 16 15 14 14 14 15 18 18 22 25 16 15 16 16 14 20 19 20 18 21 20 27 34 39 39 39 35 30 28 26 28 27 27 28 28 27 23 21 21 21 20
9 10 11 14 13 14 16 14 16 17 19 18 18 9 4 9 8 14 19 19 20 20 19 19 21 23 21 21 27 33 35 35 35 35 33 28 27 27 25 22 19 18 19 21
6 10 12 13 12 15 16 17 17 17 18 15 15 16 13 13 9 16 18 18 17 19 13 17 19 20 21 19 19 20 21 22 25 27 30 27 24 24 21 19 18 18 16 17
7 12 13 12 13 13 16 14 16 15 13 13 13 15 15 13 15 19 17 17 19 16 16 18 18 19 19 16 17 15 15 15 16 15 13 13 14 14 14 14 16 16 17 18
11 11 11 11 10 19 18 18 17 5 20 18 13 13 12 14 17 19 17 19 16 17 17 18 17 15 15 16 15 13 13 13 13 14 14 14 15 15 15 15 17 18 19 21
13 12 14 14 21 19 18 15 21 16 18 16 16 14 12 10 14 18 19 19 19 17 17 16 16 13 14 14 13 13 14 15 17 18 19 18 18 18 19 20 21 23 23 23
17 13 14 13 12 16 19 15 19 19 12 14 13 12 11 10 12 15 17 19 19 15 14 14 14 13 14 16 17 18 19 21 23 23 23 23 23 24 26 26 26 27 28 30
14 13 12 10 9 11 16 8 15 16 11 6 9 8 12 13 8 8 16 23 21 18 18 16 13 15 18 20 22 23 23 24 24 25 26 27 26 26 29 33 32 33 34 35
Wind_Direction
343 340 339 338 335 334 343 343 333 325 317 320 309 294 294 297 287 284 273 272 267 265 269 256 251 247 246 248 242 234 240 258 247 242 250 243 242 244 243 248 255 265 270 276
347 344 340 341 338 338 349 338 337 334 338 313 303 297 298 298 293 286 273 268 270 271 268 257 259 257 258 255 242 235 231 245 246 245 246 245 240 243 244 252 257 256 258 271
350 346 345 343 338 336 360 348 333 331 335 333 308 304 302 299 293 293 284 269 271 270 264 265 258 261 257 261 255 241 233 242 242 243 246 243 243 242 243 247 252 256 257 263
353 351 346 344 339 336 2 352 345 340 316 310 307 303 304 301 298 294 295 270 275 271 259 260 258 266 263 257 259 247 240 242 243 245 252 249 249 245 245 247 253 253 259 260
354 349 349 348 343 341 2 351 341 333 322 314 309 307 301 297 295 293 286 281 272 267 259 262 257 267 263 253 257 252 251 246 245 246 248 251 253 249 247 250 252 256 258 258
351 349 348 349 348 355 357 352 349 340 322 316 314 310 300 293 295 289 287 286 277 263 262 266 263 260 258 258 255 254 251 247 245 246 248 250 249 246 247 250 252 252 253 257
354 353 350 349 352 360 356 354 347 334 321 316 310 302 301 292 289 284 279 287 284 276 277 269 260 258 256 258 256 256 251 252 247 246 250 244 250 252 249 251 253 254 258 259
349 348 351 349 352 354 350 350 342 334 321 318 306 307 300 296 296 292 283 286 285 286 279 263 255 253 254 252 256 254 251 251 247 244 245 254 255 251 245 247 253 254 259 261
348 345 347 347 347 349 349 344 343 331 317 320 317 304 304 301 296 292 292 288 289 291 275 264 251 246 249 249 251 261 252 251 249 248 242 245 256 258 254 255 252 256 257 260
348 346 346 345 342 343 344 342 341 329 315 318 320 309 303 304 298 292 291 293 281 292 273 261 256 250 251 248 246 246 253 250 246 247 248 253 257 261 255 248 256 261 261 263
347 347 346 343 344 345 342 339 340 329 317 310 311 313 308 302 295 287 289 290 281 277 271 264 262 258 252 248 251 244 247 251 246 248 248 251 264 258 252 261 273 269 265 266
349 348 347 347 345 343 348 337 341 339 322 308 306 299 294 294 287 284 291 282 281 272 273 273 265 267 262 252 243 253 247 250 250 250 253 273 269 266 272 272 269 272 269 276
352 348 346 346 346 347 348 343 343 336 323 314 314 304 308 312 314 306 285 286 282 275 278 273 269 260 276 254 249 249 251 262 256 246 263 270 274 278 279 280 277 278 277 274
350 347 344 343 344 346 346 341 339 330 324 317 317 315 298 301 308 300 290 282 288 282 275 270 265 262 272 264 260 253 255 255 256 256 262 265 277 283 287 285 287 283 281 278
347 342 339 337 336 326 344 341 337 347 318 306 303 287 292 328 324 314 299 279 276 275 271 267 263 266 267 268 267 257 260 255 252 252 268 262 267 280 288 290 288 286 282 279
346 333 328 265 303 253 335 325 339 145 334 294 305 306 290 310 327 315 305 289 278 274 272 271 266 267 265 262 260 260 267 268 271 263 270 269 269 277 283 290 294 290 289 283
325 338 337 351 347 340 343 350 337 26 6 294 297 302 324 328 342 332 310 301 286 276 273 272 267 262 265 260 255 264 268 272 269 272 272 276 272 267 279 287 298 302 296 295
353 356 353 18 10 342 328 337 14 18 335 298 290 302 302 343 345 331 324 298 291 276 270 276 272 268 262 253 257 266 273 274 268 264 272 270 273 275 279 281 285 295 298 296
349 359 359 16 5 356 343 32 54 6 326 285 295 312 308 352 10 354 327 314 289 287 271 274 274 266 254 255 261 261 265 266 269 268 270 271 269 269 275 283 277 280 293 299
348 3 21 15 27 39 23 339 317 312 321 299 289 324 323 335 348 359 317 307 297 285 283 283 272 266 261 259 256 257 256 259 267 267 266 267 268 270 274 285 292 276 281 298
11 27 36 36 26 10 351 347 313 315 301 305 313 29 76 0 350 334 285 296 299 293 294 281 279 271 276 276 260 254 253 256 255 250 251 268 269 270 277 281 296 299 285 283
57 41 25 28 39 4 327 306 301 304 299 335 2 17 40 20 360 299 288 298 309 294 332 292 278 283 283 283 280 268 264 261 255 255 256 266 273 277 279 282 289 296 306 299
8 6 9 34 22 336 294 326 302 314 8 10 21 20 28 41 298 261 282 296 287 313 293 290 289 293 296 282 289 282 279 275 273 281 280 283 292 295 293 289 289 297 298 290
29 25 13 25 358 259 272 280 291 21 266 318 23 35 56 48 276 264 282 267 292 288 291 290 297 307 312 305 297 292 286 283 282 282 286 288 287 292 295 295 287 289 293 287
58 40 102 120 221 217 204 220 245 209 333 340 349 356 15 47 309 274 277 274 272 293 289 302 317 338 329 327 316 305 294 291 286 285 283 286 290 291 289 290 290 286 286 291
106 129 131 156 160 214 231 186 215 283 355 354 2 10 26 131 132 299 283 276 281 319 336 345 8 25 355 321 314 309 302 297 291 286 285 287 286 286 285 287 287 286 285 280
123 136 147 153 164 189 212 161 203 334 1 73 34 93 147 344 63 96 304 284 289 309 314 330 347 341 329 321 308 305 304 301 299 294 289 285 287 286 286 281 284 284 283 282